Regional Weather Roundup
Issued by NWS New Orleans/Baton Rouge, LA

Home | Current Version | Previous Version | Graphics & Text | Print | Product List | Glossary On
Versions: 1 2 3 4 5 6 7 8 9 10 11 12 13 14 15 16 17 18 19 20 21 22 23 24 25 26 27 28 29 30 31 32 33 34 35 36 37 38 39 40 41 42 43 44 45 46 47 48 49 50
551
ASUS44 KLIX 271401
RWRLIX
NEW ORLEANS REGIONAL WEATHER ROUNDUP
NATIONAL WEATHER SERVICE NEW ORLEANS LA
800 AM CST THU NOV 27 2014

NOTE: "FAIR" INDICATES FEW OR NO CLOUDS BELOW 12,000 FEET WITH NO
      SIGNIFICANT WEATHER AND/OR OBSTRUCTIONS TO VISIBILITY.
      SKY/WX - SKY CONDITION AND SIGNIFICANT WEATHER.
      TMP - AIR TEMPERATURE.     DP    - DEWPOINT TEMPERATURE.
      RH  - RELATIVE HUMIDITY.   PRES  - PRESSURE.
      HI  - HEAT INDEX.          WCI   - WIND CHILL INDEX.

*  THESE STATIONS ARE NOT NWS OR FAA STATIONS AND ARE NOT UNDER
   NWS QUALITY CONTROL.

LAZ038-040-048-061>063-065>067-069-271500-
SOUTHEAST LOUISIANA

CITY           SKY/WX    TMP DP  RH WIND       PRES   REMARKS
N.O. AUDUBON     N/A     56  38  52 MISG        N/A
N.O. INTL ARPT SUNNY     53  37  54 N14       30.43R
N.O. LAKEFRONT SUNNY     54  37  52 N20       30.44R
N.O. DOWNTOWN*   N/A     54  34  47 N10G18    30.43R
SLIDELL        SUNNY     49  37  63 N7        30.42R
BATON ROUGE    SUNNY     48  34  58 VRB6      30.45R
BOOTHVILLE     SUNNY     56  47  71 N8        30.41R
BELLE CHASSE   SUNNY     55  35  47 N13G20    30.41R
BOGALUSA*        N/A     47  37  68 N7        30.44R
NEW ROADS*     NOT AVBL
GONZALES*      NOT AVBL
HAMMOND*       NOT AVBL
HOUMA*         NOT AVBL
PORT FOURCHON* SUNNY     55  45  67 N9        30.45R

$$

MSZ070-080>082-271500-
SOUTHERN MISSISSIPPI

CITY           SKY/WX    TMP DP  RH WIND       PRES   REMARKS
MCCOMB         SUNNY     46  31  55 N12       30.44R
GULFPORT       SUNNY     48  38  68 NW10      30.40R
BILOXI         SUNNY     48  38  66 VRB5      30.40R
PASCAGOULA     SUNNY     48  37  65 NW7       30.39R
STENNIS ARPT*  SUNNY     46  37  71 N7        30.42R

$$

COASTAL OBSERVATIONS
LAKE AND NEARSHORE STATIONS

STATION/POSITION TIME  TEMP    WIND        PRES    WAVE
                       AIR SEA DIR/SP/G            HT/PER
                 (UTC) (F)     (DEG/KT/KT) (MB)    (FT/S)
PASCAGOULA       1300   49     320/  8/ 12 1028.2
WAVELAND YACHT   1300   49     340/ 12/ 15 1028.5
GRAND ISLE       1300   56 59  350/  8/ 10 1030.1
SOUTHWEST PASS   1300   58                 1029.7
NEW CANAL        1300   53 54  360/ 15/ 17 1030.4
SHELL BEACH      1300   54 52  350/ 16/ 19 1029.4

OFFSHORE STATIONS

STATION/POSITION TIME  TEMP    WIND        PRES    WAVE
                       AIR SEA DIR/SP/G            HT/PER
                 (UTC) (F)     (DEG/KT/KT) (MB)    (FT/S)
64 S DAUPHIN ISL 1342   61 70  350/ 19/ 25 1029.2    5/ 6

$$




USA.gov is the U.S. government's official web portal to all federal, state and local government web resources and services.